FW6280 Weather Reports


Display with metric or nautical units.
time (UTC)temp
F
wind
direction
speed
MPH
gust
MPH
rain 1hr
in
rain 24hr
in
rain mn
in
humidity
%
barometer
mb
20260504173036 58 219 6.0 11.0 0.00 0.00 0.00 89 1014.3
20260504171540 56 170 4.0 9.0 0.00 0.00 0.00 92 1014.0
20260504081556 53 152 7.0 16.0 0.00 0.00 0.00 94 1012.9
20260504060105 52 175 6.0 15.0 0.00 0.00 0.00 95 1012.5
20260504044515 52 360 6.0 10.0 0.00 0.00 0.00 94 1012.0
20260504043036 52 164 3.0 10.0 0.00 0.00 0.00 94 1011.9
20260504041601 52 196 1.0 14.0 0.00 0.00 0.00 94 1011.7
20260504040025 52 360 0.0 7.0 0.00 0.00 0.00 94 1011.4
20260504034540 52 230 0.0 4.0 0.00 0.00 0.00 93 1011.6
20260504033116 52 211 0.0 6.0 0.00 0.00 0.00 93 1011.7
20260504031525 53 204 3.0 7.0 0.00 0.00 0.00 93 1012.0
20260504030054 53 196 3.0 11.0 0.00 0.00 0.00 93 1011.3
20260504024520 53 178 3.0 12.0 0.00 0.00 0.00 93 1010.9
20260504023045 53 200 6.0 17.0 0.00 0.00 0.00 93 1010.9
20260504021509 54 187 5.0 13.0 0.00 0.00 0.00 92 1010.9
20260504020035 54 178 4.0 14.0 0.00 0.00 0.00 92 1010.8
20260504014545 55 207 8.0 15.0 0.00 0.00 0.00 91 1011.0
20260504013033 55 182 5.0 14.0 0.00 0.00 0.00 92 1010.7
20260504011553 55 191 8.0 15.0 0.00 0.00 0.00 93 1010.5
20260504010013 54 236 7.0 15.0 0.00 0.00 0.00 94 1010.6
20260504004541 54 198 6.0 13.0 0.00 0.00 0.00 94 1010.7
20260504003003 54 197 4.0 13.0 0.00 0.00 0.00 94 1010.8
20260504001533 54 215 4.0 12.0 0.00 0.00 0.00 94 1010.5
20260504000100 54 197 5.0 10.0 0.00 0.00 0.00 95 1010.8
20260503234525 53 218 6.0 14.0 0.00 0.00 0.00 94 1010.8
20260503233051 53 182 5.0 13.0 0.00 0.00 0.00 94 1010.6
20260503231515 53 209 3.0 14.0 0.00 0.00 0.00 95 1010.6
20260503230043 53 213 5.0 11.0 0.00 0.00 0.00 94 1010.7
20260503224554 54 173 3.0 9.0 0.00 0.00 0.00 94 1010.8
20260503223003 54 200 4.0 9.0 0.00 0.00 0.00 94 1010.7
20260503221538 55 360 4.0 9.0 0.00 0.00 0.00 94 1010.8
20260503220112 55 360 3.0 9.0 0.00 0.00 0.00 95 1010.9
20260503214524 54 229 5.0 11.0 0.00 0.00 0.00 95 1010.9
20260503213039 54 181 6.0 16.0 0.00 0.00 0.00 95 1010.7
20260503211611 54 360 6.0 12.0 0.00 0.00 0.00 96 1010.9
20260503210023 53 190 7.0 18.0 0.00 0.00 0.00 97 1011.0
20260503204555 52 215 6.0 14.0 0.00 0.00 0.00 96 1011.1
20260503203104 54 360 4.0 13.0 0.00 0.00 0.00 97 1011.1
20260503201531 53 360 7.0 17.0 0.00 0.00 0.00 96 1011.1
20260503200055 53 360 5.0 13.0 0.00 0.00 0.00 97 1011.1
20260503194526 53 227 4.0 15.0 0.00 0.00 0.00 98 1010.9
20260503193033 52 360 5.0 15.0 0.00 0.00 0.00 98 1010.8
20260503191601 52 184 5.0 14.0 0.00 0.00 0.00 98 1010.9
20260503190022 51 179 4.0 11.0 0.00 0.00 0.00 99 1010.9
20260503184547 51 185 5.0 10.0 0.00 0.00 0.00 99 1011.0
20260503183105 51 223 4.0 9.0 0.00 0.00 0.00 98 1011.0
20260503181533 51 207 0.0 5.0 0.00 0.00 0.00 99 1010.9
20260503180040 51 199 0.0 0.0 0.00 0.00 0.00 98 1010.9
20260503174603 50 197 0.0 0.0 0.00 0.00 0.00 98 1010.8